{"data":{"norad_id":62695,"epoch":"2026-05-25T04:28:29.311968Z","epoch_age_seconds":59217,"freshness":"FRESH","line1":"1 62695U 25009CQ  26145.18645037  .00000705  00000+0  72896-4 0  9993","line2":"2 62695  97.7078 223.4977 0004266  83.9553 276.2153 14.93150194 73860","mean_motion":14.93150194,"eccentricity":0.0004266,"inclination_deg":97.7078,"raan_deg":223.4977,"arg_perigee_deg":83.9553,"mean_anomaly_deg":276.2153,"bstar":7.2896e-5,"rev_number":7386,"period_min":96.440398681018,"perigee_km":585.14849685329,"apogee_km":591.09210758355,"semimajor_km":6966.2573022184,"source":"CELESTRAK","updated_at":"2026-05-25T13:38:03.170989Z"}}